STARLINK-31854, 59671

Orbit data source: Space-Track

STARLINK-31854, 59671 is a payload satellite owned by SpaceX/Seattle (US) in LEO that was launched on Mon, 06 May 2024 UTC via an FALCON 9 launch vehicle from the Air Force Eastern Test Range (AFETR). Payload-class satellites include a variety of spacecraft equipped with specific instruments for various scientific and technological missions. These include communications satellites like Starlink; space stations such as the ISS; scientific satellites like the Hubble; Earth observation satellites from companies like Planet Labs, Umbra, and HawkEye 360; GPS; miniature CubeSats for education and research; and military/defense satellites.

Loading next visibility...
Identifier
59671, 2024-084T
Orbit
LEO
Country
Flag of USUS
Related business
Manufacturer
SpaceX/Seattle
Mission
Operational Commercial Communications
Bus & Motor
STARLINK V2M, Unknown motor
Mass
730 kg wet, ~700 kg dry
Launch date (UTC)
2024-05-06 (2 years ago)
Launch vehicle
FALCON 9
Launch site
Air Force Eastern Test Range (AFETR)
Object type
Payload
Rocket body
Debris
Shape & HBR
Box + 2 Pan, 17.7 m
Radar Cross Section
33.884 m², Large (>1 m²)

Expand to show TLE details & history
Last TLE update: 18 hours ago

TLE from 18 hours ago
0 STARLINK-31854
1 59671U 24084T   25348.12274410  .00000780  00000-0  37869-4 0  9991
2 59671  43.0018 132.0086 0001673 270.8351  89.2309 15.27587746 91642
Epoch: 2025-12-14T02:56Z
TLE epoch observation values (Epoch: 2025-12-14T02:56:45.090Z)
Latitude
-0.00001°
Longitude
4.78053°
Altitude
482.786 km
Speed
7.626 km/s
True Right ascension
08h 48m 02s
True Declination
0° 00' 00"
Sunlit
Object was in full shadow at epoch
Visualization orbit readout
Latitude
Unknown
Longitude
Unknown
Altitude
Unknown
Speed
Unknown
Apparent Right ascension
Unknown
Apparent Declination
Unknown
Sunlit
N/A
Visualization observer readout
Local Sidereal Time
19:41:00
Azimuth
Unknown
Elevation
Unknown
Doppler factor
Unknown
Orbital elements
Apogee altitude
486.119 km
Perigee altitude
483.823 km
Semi-major axis
6,863.108 km
Eccentricity
0.00017
Inclination
43.0018°
RAAN
132.0086°
Arg. of periapsis
270.8351°
True anomaly
89.25007°
Mean anomaly
89.2309°
Eccentric anomaly
89.24048°
Mean motion
3.81735 °/min
Orbital period
94.31 mins
BSTAR
0.000037869
Loading maneuver chart data...
Computing Atmospheric mass density...
Loading historical data...
Loading historical data...
Loading historical data...
Loading historical data...
Loading historical data...
Loading historical data...
Loading historical data...

Documentation

Showing up to 5 results
|